Home   Weather   Morden   Past weeks

Flag for Canada Past Weather in Morden, Manitoba, Canada — Yesterday and Last 2 Weeks

Now
32 °F

Chilly.


Feels Like: 25 °F
Forecast: 22 / 31 °F
Wind: 7 mph from Southeast

Location: Morden CDA CS

Current Time: Dec 4, 2016 at 8:11:05 am

Latest Report: Dec 4, 2016 at 7:00 am


Visibility: N/A

Pressure: 29.69 "Hg

Humidity: 100%

Dew Point: 32 °F

Location of MordenLocation

Past Weather in Morden — Graph

°F

Morden Temperature Yesterday

Maximum temperature yesterday: 29 °F (at 11:00 pm)
Minimum temperature yesterday: 26 °F (at 6:00 am)
Average temperature yesterday: 28 °F

High & Low Weather Summary for the Past Weeks

 TemperatureHumidityPressure
High48 °F (Nov 26, 3:00 pm)100% (Nov 22, 7:00 am)30.53 "Hg (Nov 22, 7:00 am)
Low15 °F (Nov 19, 8:00 am)43% (Nov 19, 1:00 pm)29.02 "Hg (Nov 28, 2:00 pm)
Average30 °F88%29.97 "Hg
* Reported Nov 19 7:00 am — Dec 4 7:00 am, Morden, Weather by CustomWeather, © 2016

Note: Actual official high and low records may vary slightly from our data, if they occured in-between our weather recording intervals... More about our weather records

Advertising

Morden Weather History for the Previous 24 Hours

Scroll right to see more
 ConditionsComfort  
Time TempWeatherWind HumidityBarometerVisibility
7:00 am
Sun, Dec 4
32 °FChilly.7 mph100%29.69 "HgN/A
6:00 am32 °FChilly.8 mph100%29.71 "HgN/A
5:00 am32 °FChilly.12 mph100%29.74 "HgN/A
4:00 am31 °FChilly.10 mph99%29.77 "HgN/A
3:00 am31 °FChilly.10 mph99%29.79 "HgN/A
2:00 am30 °FChilly.10 mph100%29.81 "HgN/A
1:00 am30 °FChilly.13 mph99%29.84 "HgN/A
12:00 am30 °FChilly.12 mph97%29.87 "HgN/A
11:00 pm
Sat, Dec 3
29 °FChilly.10 mph95%29.88 "HgN/A
10:00 pm29 °FChilly.13 mph93%29.90 "HgN/A
9:00 pm29 °FChilly.13 mph91%29.92 "HgN/A
8:00 pm29 °FChilly.12 mph90%29.95 "HgN/A
7:00 pm29 °FChilly.14 mph89%29.97 "HgN/A
6:00 pm28 °FChilly.13 mph89%30.00 "HgN/A
5:00 pm28 °FChilly.13 mph90%30.00 "HgN/A
4:00 pm29 °FChilly.13 mph89%30.01 "HgN/A
3:00 pm29 °FChilly.16 mph89%30.02 "HgN/A
2:00 pm29 °FChilly.15 mph89%30.03 "HgN/A
1:00 pm29 °FChilly.15 mph84%30.05 "HgN/A
12:00 pm29 °FChilly.13 mph82%30.07 "HgN/A
11:00 am28 °FChilly.13 mph91%30.09 "HgN/A
10:00 am28 °FChilly.14 mph85%30.10 "HgN/A
9:00 am27 °FChilly.13 mph86%30.11 "HgN/A
8:00 am27 °FChilly.14 mph87%30.12 "HgN/A
Weather by CustomWeather, © 2016

See weather overviewHow to use our weather pages